Regional Weather Roundup
Issued by NWS

Home | Current Version | Previous Version | Graphics & Text | Print | Product List | Glossary On
Versions: 1 2 3 4 5 6 7 8 9 10 11 12 13 14 15 16 17 18 19 20 21 22 23 24 25 26 27 28 29 30 31 32 33 34 35 36 37 38 39 40 41 42 43 44 45 46 47 48 49 50
176
ASUS43 KFSD 242210
RWRSD

WEATHER ROUNDUP FOR SOUTH DAKOTA
NATIONAL WEATHER SERVICE SIOUX FALLS SD
500 PM CDT THU MAY 24 2018

NOTE: "FAIR" INDICATES FEW OR NO CLOUDS BELOW 12,000 FEET WITH NO
SIGNIFICANT WEATHER AND/OR OBSTRUCTIONS TO VISIBILITY.


SDZ001>005-009-010-012>017-242300-
NORTHWEST AND NORTH CENTRAL SOUTH DAKOTA

CITY           SKY/WX    TMP DP  RH WIND       PRES   REMARKS
BUFFALO          N/A     81  53  37 W18G29    29.82F
FAITH            N/A     79  55  43 NW15      29.87F
MOBRIDGE       PTSUNNY   86  57  37 W14       29.79S
$$

SDZ012>016-024>037-041>051-057-063-072>074-242300-
SOUTHWEST AND SOUTH CENTRAL SOUTH DAKOTA

CITY           SKY/WX    TMP DP  RH WIND       PRES   REMARKS
RAPID CTY ARPT SUNNY     80  54  40 E7        29.92F
PIERRE         SUNNY     84  59  42 W15G22    29.83S
CUSTER         SUNNY     72  42  34 NW12G20   30.06S
ELLSWORTH AFB  SUNNY     79  53  40 NE6       29.92F
PHILIP         SUNNY     82  55  39 VRB5      29.87S
PINE RIDGE     SUNNY     82  52  35 W10G23    29.95S
SPEARFISH      FAIR      75  50  41 W13       29.95S
WINNER         FAIR      83  67  58 S20G25    29.85F
$$

SDZ004>011-016>023-039-040-242300-
NORTHEAST SOUTH DAKOTA

CITY           SKY/WX    TMP DP  RH WIND       PRES   REMARKS
ABERDEEN       MOSUNNY   90  61  37 SW16G29   29.78F
WATERTOWN      MOSUNNY   86  63  45 SW20G29   29.83F
BROOKINGS      MOSUNNY   87  63  44 SW17G26   29.86F
SISSETON         N/A     88  62  41 SW14G24   29.80F
$$

SDZ017-020-022-023-036>040-048>070-242300-
SOUTHEAST SOUTH DAKOTA

CITY           SKY/WX    TMP DP  RH WIND       PRES   REMARKS
SIOUX FALLS    CLOUDY    81  62  52 S17G29    29.88F
HURON          CLOUDY    84  64  50 SW14G26   29.83F
CHAMBERLAIN    PTSUNNY   82  69  64 S15       29.85F
MITCHELL       CLOUDY    83  66  56 SW13G21   29.85F
YANKTON        LGT RAIN  86  65  49 SW6       29.88F
$$

ABBREVIATIONS USED IN REMARKS
   TC - TEMPERATURE IN CELSIUS
  WCI - WIND CHILL INDEX
   HX - HEAT INDEX
  VSB - VISIBILITY





USA.gov is the U.S. government's official web portal to all federal, state and local government web resources and services.